Wind_Speed
28 29 29 30 31 33 34 35 37 36 36 36 38 39 40 39 38 37 37 38 39 40 41 42 43 45 46 47 48 48 49 50 50 51 52 52 52 53 53 53 53 53 52 53
28 28 29 30 30 31 32 34 35 36 36 35 35 37 38 38 37 36 37 37 37 38 39 39 40 42 44 45 46 47 48 49 50 51 51 52 52 53 53 54 54 54 53 53
28 27 28 29 28 29 30 30 32 34 34 34 34 34 34 35 35 35 35 35 36 37 38 39 40 41 42 43 45 46 47 48 49 49 50 51 52 52 52 53 53 54 54 54
28 28 28 27 27 27 28 28 28 30 31 32 33 33 33 34 35 35 35 36 36 37 38 38 40 41 42 43 44 45 46 47 48 48 49 50 50 51 51 52 53 54 54 55
28 29 28 26 26 26 27 26 27 28 29 30 30 32 32 33 34 35 36 36 36 37 38 39 40 41 42 43 43 44 45 46 47 47 48 49 50 51 51 52 53 53 53 54
29 29 29 26 25 26 26 26 26 28 28 28 29 31 31 32 33 34 35 36 37 38 39 39 40 41 42 43 43 44 45 45 46 47 47 48 48 49 51 52 52 53 53 53
28 28 27 25 25 25 25 25 25 26 27 28 29 30 31 31 32 33 34 35 35 36 37 38 39 39 40 41 41 43 44 44 44 45 46 46 46 47 48 49 50 50 52 52
29 28 26 25 24 24 25 25 26 26 27 28 29 29 30 31 32 32 33 34 35 36 36 37 38 38 38 39 40 41 41 42 43 43 43 44 45 45 46 46 47 48 48 50
28 27 26 24 24 24 24 25 25 26 27 27 28 29 30 31 31 32 33 33 34 35 36 36 36 36 37 37 38 39 39 40 41 41 42 43 43 43 44 44 45 46 47 47
26 25 25 24 24 25 25 25 25 26 26 27 28 28 29 30 31 31 32 32 32 33 33 33 34 34 35 36 36 36 37 38 39 40 41 41 42 41 42 42 43 44 44 45
26 25 26 25 24 24 24 24 24 25 25 26 27 27 28 29 30 31 31 31 32 32 32 32 32 32 32 33 34 35 36 36 38 38 39 40 40 41 41 42 43 43 43 44
25 24 25 25 24 24 24 24 24 25 25 26 27 27 28 28 29 30 31 31 31 31 32 32 31 31 31 32 32 33 34 34 36 37 38 39 40 40 41 42 43 43 43 43
23 23 24 24 24 24 25 25 25 25 25 25 26 27 27 28 29 29 30 30 30 30 30 30 30 31 31 31 32 32 32 32 33 34 35 36 38 39 40 41 41 42 42 42
22 22 22 23 23 23 24 25 26 26 26 26 26 27 28 28 28 28 28 28 28 29 29 29 30 30 31 31 31 32 32 32 32 33 34 35 36 37 38 39 40 41 41 42
23 23 23 23 23 23 23 24 25 25 25 25 26 27 27 27 27 27 27 27 27 28 29 29 30 30 31 31 31 31 31 32 32 33 33 34 35 36 36 37 38 39 40 41
23 23 23 23 23 23 23 24 24 25 25 25 26 26 26 26 26 26 26 26 27 28 28 29 29 29 30 30 31 31 31 31 32 33 33 34 34 35 35 36 36 37 38 39
23 23 23 23 23 24 24 24 24 24 24 24 24 25 25 25 25 25 25 25 26 27 27 28 28 28 29 29 30 30 30 31 32 33 33 33 34 34 35 35 36 36 37 37
24 24 24 23 23 23 23 23 23 23 23 24 24 25 24 24 24 24 25 25 25 26 26 27 27 27 28 29 29 30 31 31 32 33 33 33 33 33 34 34 35 35 35 35
25 25 24 24 24 24 24 24 24 24 24 24 24 24 24 24 24 24 24 25 25 25 25 26 26 26 27 28 29 29 30 31 31 31 31 31 32 32 33 33 33 33 33 33
25 25 25 24 24 24 24 24 24 24 24 24 25 24 24 24 24 24 24 24 25 25 25 26 26 27 27 28 28 29 30 30 30 30 30 30 30 30 30 30 30 30 30 31
25 25 24 24 23 23 23 24 24 25 25 25 25 24 24 24 24 25 25 25 25 25 26 27 27 27 27 27 28 28 29 29 29 29 28 28 28 28 28 28 28 29 29 30
24 24 24 24 24 24 24 24 25 25 25 25 25 24 24 24 25 25 25 25 25 25 26 26 27 27 27 27 27 28 28 28 28 27 27 27 27 27 27 28 28 29 29 29
24 24 24 24 24 24 24 25 25 25 25 25 24 24 24 24 24 24 24 24 25 25 26 26 26 27 27 27 27 27 27 26 26 26 26 26 27 27 28 28 29 29 29 29
24 24 24 24 24 24 25 25 25 24 24 24 24 24 24 24 24 25 24 24 25 25 25 26 26 26 26 26 26 26 26 26 26 26 26 26 27 28 28 28 29 29 29 29
24 24 23 23 23 23 24 23 23 24 24 24 24 25 25 25 24 24 24 25 25 25 25 25 25 25 24 24 25 25 25 25 26 26 27 27 28 28 28 28 28 28 28 28
24 24 23 23 23 23 23 23 24 24 25 25 25 25 25 25 25 25 25 25 25 25 24 24 24 24 23 24 24 24 25 25 26 26 27 27 27 27 27 28 28 28 28 28
24 24 24 24 24 23 23 24 24 25 25 25 25 26 26 25 25 25 25 26 25 25 25 25 24 24 24 24 24 25 25 25 26 26 27 27 27 27 27 27 27 27 27 27
Wind_Direction
284 281 276 273 270 268 266 265 264 263 262 261 259 260 260 260 260 259 256 255 254 253 253 253 253 254 254 254 253 252 252 252 252 251 251 252 253 253 252 253 254 255 255 256
286 284 279 275 272 270 269 268 266 263 261 260 260 260 260 259 260 260 257 256 255 254 254 254 255 254 254 254 254 254 254 254 253 253 252 253 253 253 253 254 255 255 256 258
290 288 284 279 276 272 270 269 268 265 262 260 260 260 259 259 259 260 259 258 258 257 256 255 255 255 254 254 254 254 255 255 255 254 254 254 255 255 255 255 256 256 257 258
293 291 287 286 281 275 271 270 269 266 263 262 261 260 259 258 257 258 258 258 257 257 257 257 256 256 256 255 255 255 255 255 255 255 255 255 255 256 256 257 257 258 258 258
294 293 290 287 283 278 274 270 269 267 264 263 262 260 259 259 259 260 259 258 259 258 259 259 259 258 257 257 257 257 256 257 256 255 255 255 256 257 257 258 258 259 259 259
296 294 293 291 285 280 276 272 269 269 267 265 263 261 259 261 261 260 261 260 261 260 261 261 261 261 260 259 259 258 258 258 256 255 256 257 258 258 258 259 259 259 259 260
295 293 292 291 287 281 277 276 273 272 270 268 266 265 263 262 262 262 261 262 262 262 263 263 263 263 262 261 260 260 260 259 257 256 256 257 258 258 259 259 259 260 260 260
294 293 291 289 287 282 278 276 274 273 272 270 268 267 266 265 265 265 264 264 264 264 265 265 264 263 262 262 261 261 260 259 258 257 257 257 258 258 259 260 260 261 261 261
295 292 289 288 286 283 280 278 276 275 274 273 271 269 268 267 266 266 266 265 265 266 267 267 266 264 263 262 261 261 260 259 259 258 258 258 258 259 259 260 261 262 262 262
294 291 288 285 284 283 281 280 278 276 275 275 274 272 270 269 268 269 268 267 267 267 267 267 267 266 264 263 262 262 261 260 259 258 258 259 259 259 260 261 261 262 262 263
292 289 286 284 283 283 282 280 278 277 276 275 275 276 274 273 272 272 270 269 269 268 268 267 267 268 267 265 264 264 263 261 260 260 259 259 260 260 261 262 262 262 263 264
294 291 288 285 283 282 281 280 279 279 279 277 276 276 276 276 275 273 272 271 270 269 269 268 268 268 268 266 265 265 264 264 263 262 260 260 260 261 262 263 264 265 266 266
296 293 290 289 285 283 281 280 280 279 280 279 279 278 278 278 277 275 274 272 271 269 269 268 268 268 268 268 266 265 265 266 265 264 264 263 263 263 263 264 265 266 267 268
297 294 293 291 288 286 284 283 283 282 281 280 280 280 280 279 278 277 275 272 271 271 271 270 269 269 269 268 266 265 265 266 266 266 266 266 266 265 265 266 266 267 268 269
298 296 295 294 292 289 287 287 286 286 284 283 282 281 281 281 280 277 275 273 272 271 271 271 270 270 269 268 267 266 266 266 266 266 267 267 267 267 267 268 269 269 270 270
300 298 296 295 293 291 289 289 290 289 288 286 284 282 282 282 281 278 276 275 273 273 272 272 272 272 271 269 268 268 267 267 267 268 268 268 268 269 269 270 270 271 271 272
301 301 297 294 292 292 292 292 292 293 293 291 290 288 286 285 282 279 277 276 275 275 275 274 274 274 273 271 270 269 269 269 269 269 270 270 270 270 270 271 271 272 273 274
302 302 299 295 292 292 293 293 294 295 295 295 294 293 291 288 285 281 278 277 277 277 277 277 276 276 274 272 271 270 271 271 271 272 271 271 270 270 271 271 273 274 274 274
301 302 300 296 293 292 292 292 294 295 296 296 296 295 292 290 288 285 282 281 281 281 280 278 278 278 277 275 273 272 272 273 273 273 272 271 271 271 271 272 273 274 274 274
300 300 298 296 293 292 292 293 294 295 295 296 296 295 293 291 290 288 287 285 284 283 281 280 280 280 279 277 276 276 275 275 275 273 272 271 271 272 272 273 274 274 274 274
299 299 297 295 294 293 293 294 295 295 295 295 295 295 293 292 291 290 289 289 287 285 283 282 282 281 280 279 278 277 276 275 275 274 273 272 272 272 273 274 275 275 276 276
300 299 297 295 295 294 293 294 295 295 295 295 296 295 295 294 293 292 292 291 290 288 287 286 284 283 281 280 279 278 276 275 274 274 273 273 273 273 274 274 275 276 277 277
300 299 297 296 296 295 294 293 295 295 295 296 296 296 296 295 295 295 294 293 292 290 289 289 287 284 282 280 279 278 277 276 275 275 274 274 274 275 275 276 277 278 278 277
301 300 298 297 296 295 295 294 294 294 295 296 297 297 296 296 296 295 295 295 294 293 292 290 289 286 283 281 278 277 277 277 276 276 276 276 276 276 277 277 278 278 278 278
301 301 300 299 298 297 296 296 295 295 296 297 297 297 297 298 297 297 296 295 295 294 293 292 291 289 285 282 280 279 278 277 277 278 278 278 278 278 278 278 278 278 278 278
300 300 300 300 300 299 298 297 297 297 297 297 296 296 297 298 297 297 296 296 295 294 294 294 293 291 288 285 283 281 280 279 279 280 280 280 279 279 278 278 278 278 278 278
302 300 299 299 300 299 299 298 299 299 298 297 296 296 297 297 297 298 297 296 295 294 295 294 293 291 289 287 284 283 282 282 282 282 281 281 280 279 279 278 278 279 279 279
Height
5505 5504 5503 5502 5503 5502 5502 5502 5502 5504 5505 5508 5508 5509 5511 5512 5514 5516 5518 5519 5521 5522 5524 5526 5528 5531 5533 5535 5537 5540 5542 5545 5548 5550 5553 5555 5558 5561 5564 5567 5569 5572 5575 5577
5498 5496 5494 5494 5494 5494 5493 5493 5493 5494 5496 5497 5498 5499 5500 5502 5503 5505 5506 5508 5510 5511 5513 5515 5516 5518 5520 5522 5524 5527 5529 5532 5534 5537 5539 5542 5545 5547 5550 5553 5556 5559 5561 5563
5490 5489 5486 5486 5487 5486 5485 5484 5484 5484 5488 5488 5488 5489 5491 5492 5493 5495 5496 5498 5499 5501 5502 5503 5505 5506 5508 5510 5512 5514 5516 5518 5521 5523 5526 5529 5531 5534 5536 5539 5542 5545 5547 5549
5482 5482 5479 5482 5479 5478 5477 5477 5476 5476 5478 5478 5479 5480 5481 5482 5483 5484 5486 5487 5489 5490 5491 5492 5493 5494 5496 5498 5500 5501 5503 5505 5507 5510 5512 5515 5518 5520 5523 5525 5528 5530 5532 5534
5475 5473 5471 5473 5472 5470 5469 5470 5470 5469 5470 5470 5470 5471 5472 5473 5474 5475 5476 5477 5478 5479 5480 5481 5482 5483 5484 5486 5487 5489 5491 5492 5494 5497 5499 5502 5504 5506 5508 5511 5513 5515 5517 5519
5468 5465 5464 5467 5465 5462 5462 5463 5463 5462 5463 5462 5462 5463 5465 5465 5464 5465 5466 5467 5468 5468 5469 5470 5470 5471 5472 5474 5475 5477 5478 5480 5481 5483 5486 5488 5491 5492 5494 5496 5498 5500 5502 5503
5461 5458 5457 5458 5456 5455 5456 5457 5456 5454 5454 5454 5453 5455 5456 5455 5455 5456 5456 5457 5457 5458 5458 5459 5459 5459 5460 5462 5463 5464 5465 5467 5469 5470 5473 5475 5477 5478 5480 5482 5484 5485 5487 5489
5454 5452 5453 5451 5449 5449 5448 5447 5447 5446 5446 5445 5445 5445 5445 5446 5446 5446 5447 5447 5447 5447 5448 5448 5448 5448 5449 5450 5451 5451 5453 5454 5456 5458 5459 5461 5463 5465 5466 5468 5469 5471 5472 5474
5448 5448 5445 5443 5442 5441 5440 5439 5439 5438 5438 5437 5437 5437 5436 5437 5437 5437 5437 5437 5437 5437 5437 5437 5437 5437 5438 5438 5439 5440 5441 5442 5444 5445 5447 5448 5450 5452 5453 5454 5456 5457 5458 5459
5440 5439 5437 5436 5435 5434 5433 5432 5431 5430 5430 5429 5429 5428 5428 5428 5428 5428 5428 5427 5427 5427 5427 5427 5427 5427 5427 5427 5428 5428 5430 5431 5432 5433 5435 5436 5437 5439 5440 5441 5442 5444 5444 5445
5433 5432 5430 5429 5428 5427 5425 5424 5423 5422 5421 5421 5420 5420 5419 5419 5419 5419 5418 5418 5418 5417 5417 5417 5417 5417 5417 5417 5417 5418 5419 5420 5421 5422 5423 5424 5425 5426 5427 5429 5429 5430 5431 5431
5426 5425 5423 5422 5421 5419 5418 5417 5416 5415 5414 5413 5412 5411 5411 5410 5410 5409 5409 5408 5408 5408 5407 5407 5407 5407 5407 5407 5407 5408 5408 5409 5409 5410 5411 5412 5413 5414 5414 5415 5416 5416 5417 5417
5419 5418 5416 5414 5413 5412 5411 5410 5408 5407 5406 5405 5404 5403 5402 5401 5401 5400 5399 5398 5398 5398 5398 5398 5398 5398 5398 5397 5397 5398 5398 5398 5399 5399 5400 5401 5401 5402 5403 5403 5403 5403 5403 5403
5413 5411 5409 5408 5406 5405 5403 5402 5401 5400 5398 5397 5396 5395 5394 5393 5392 5391 5390 5389 5389 5389 5388 5388 5388 5388 5388 5387 5387 5387 5388 5388 5388 5389 5389 5389 5389 5390 5390 5390 5391 5390 5390 5390
5408 5405 5403 5402 5400 5398 5397 5395 5394 5392 5391 5389 5388 5386 5385 5384 5383 5382 5381 5380 5380 5379 5379 5379 5378 5378 5377 5377 5377 5377 5378 5378 5378 5378 5378 5378 5378 5378 5378 5378 5378 5378 5378 5377
5403 5400 5398 5396 5394 5392 5390 5389 5387 5385 5383 5381 5380 5378 5377 5375 5374 5373 5372 5371 5371 5370 5370 5369 5369 5368 5368 5367 5367 5367 5368 5367 5367 5367 5367 5367 5367 5367 5366 5366 5366 5366 5366 5365
5397 5395 5392 5390 5388 5386 5384 5382 5380 5378 5376 5374 5372 5370 5369 5367 5366 5365 5364 5363 5362 5361 5360 5360 5359 5359 5358 5358 5357 5357 5357 5357 5357 5357 5356 5356 5356 5355 5355 5355 5354 5354 5354 5353
5391 5388 5386 5383 5381 5379 5378 5375 5373 5371 5369 5367 5365 5363 5361 5359 5358 5357 5356 5354 5353 5353 5352 5351 5350 5349 5348 5348 5347 5347 5347 5347 5346 5346 5345 5345 5345 5345 5344 5344 5343 5343 5342 5341
5384 5382 5379 5377 5375 5373 5371 5369 5367 5365 5363 5360 5358 5356 5354 5352 5351 5349 5347 5346 5345 5344 5343 5342 5341 5340 5339 5338 5338 5338 5337 5337 5336 5336 5335 5334 5334 5334 5334 5333 5333 5332 5331 5330
5378 5375 5373 5370 5368 5366 5364 5362 5360 5358 5356 5354 5352 5350 5347 5345 5343 5342 5340 5338 5337 5336 5334 5333 5332 5331 5330 5329 5329 5328 5327 5327 5326 5325 5325 5324 5324 5324 5323 5323 5322 5321 5321 5320
5372 5369 5366 5364 5362 5360 5358 5356 5354 5352 5349 5347 5345 5343 5341 5338 5336 5334 5332 5331 5329 5327 5326 5324 5323 5322 5321 5320 5319 5319 5318 5317 5317 5316 5315 5315 5315 5314 5314 5313 5312 5312 5311 5310
5365 5362 5360 5358 5355 5353 5351 5349 5347 5345 5342 5340 5338 5336 5333 5331 5329 5327 5324 5323 5321 5319 5317 5316 5314 5313 5312 5311 5310 5309 5308 5308 5307 5306 5306 5306 5305 5305 5304 5304 5303 5302 5301 5301
5358 5356 5354 5351 5349 5347 5344 5342 5340 5338 5335 5333 5331 5328 5326 5324 5322 5319 5317 5315 5313 5311 5309 5307 5306 5304 5303 5302 5301 5300 5299 5299 5298 5297 5297 5296 5296 5295 5295 5294 5293 5292 5291 5291
5352 5349 5347 5344 5342 5340 5338 5335 5333 5331 5328 5326 5324 5321 5319 5317 5314 5312 5309 5307 5305 5303 5301 5299 5297 5295 5294 5293 5292 5291 5290 5290 5289 5289 5288 5287 5287 5286 5285 5284 5284 5283 5282 5281
5345 5343 5340 5338 5336 5333 5331 5328 5326 5324 5321 5319 5316 5314 5311 5309 5307 5304 5302 5300 5297 5295 5293 5291 5289 5287 5285 5284 5283 5283 5282 5281 5280 5280 5279 5278 5277 5277 5276 5275 5274 5273 5272 5271
5338 5336 5334 5331 5329 5327 5324 5321 5319 5317 5314 5312 5309 5306 5304 5301 5299 5297 5294 5292 5289 5287 5285 5283 5281 5279 5277 5276 5275 5274 5273 5272 5272 5271 5270 5269 5268 5267 5266 5265 5264 5263 5263 5262
5332 5329 5327 5325 5322 5320 5317 5315 5312 5309 5307 5304 5302 5299 5296 5294 5291 5289 5286 5284 5281 5279 5277 5275 5273 5271 5270 5268 5267 5266 5265 5264 5263 5262 5260 5259 5258 5257 5256 5255 5255 5254 5253 5252